COSMOS 2251 DEB, 37284

Orbit data source: Space-Track

COSMOS 2251 DEB, 37284 is space debris in LEO originally from a launch on Wed, 16 Jun 1993 UTC launched from the Plesetsk Missile And Space Complex (PKMTR). The debris from Iridium 33, an American commercial communications satellite, has been tracked extensively since its accidental collision with the defunct Russian satellite Cosmos 2251 in 2009. This event, occurring at high speed in low Earth orbit (LEO), generated thousands of pieces of space debris, significantly increasing the risk of further collisions. The Iridium 33 debris cloud has impacted space traffic management and orbital debris mitigation strategies, making it a subject of ongoing study in space situational awareness.

Loading next visibility...
Identifier
37284, 1993-036BHY
Orbit
LEO
Country
Flag of CISCIS
Related business
Manufacturer
Unknown
Mission
Spacecraft
Bus & Motor
Unknown
Mass
Unknown
Launch date (UTC)
1993-06-16 (33 years ago)
Launch vehicle
Unknown
Launch site
Plesetsk Missile And Space Complex (PKMTR)
Object type
Payload
Rocket body
Debris
Shape & HBR
Unknown shape, 0.1 m
Radar Cross Section
Small (<0.1 m²)

Expand to show TLE details & history
Last TLE update: 2 days ago

TLE from 2 days ago
0 COSMOS 2251 DEB
1 37284U 93036BHY 26255.65956069  .00002281  00000-0  10775-2 0  9996
2 37284  74.0164  31.2905 0159221 118.7113 256.1223 14.13852050630458
Epoch: 2026-09-12T15:49Z
TLE epoch observation values (Epoch: 2026-09-12T15:49:46.043Z)
Latitude
12.52382°
Longitude
165.81205°
Altitude
877.359 km
Speed
7.4 km/s
True Right ascension
02h 19m 40s
True Declination
12° 27' 09"
Sunlit
Object was in full shadow at epoch
Visualization orbit readout
Latitude
Unknown
Longitude
Unknown
Altitude
Unknown
Speed
Unknown
Apparent Right ascension
Unknown
Apparent Declination
Unknown
Sunlit
N/A
Visualization observer readout
Local Sidereal Time
17:31:49
Azimuth
Unknown
Elevation
Unknown
Doppler factor
Unknown
Orbital elements
Apogee altitude
958.859 km
Perigee altitude
728.88 km
Semi-major axis
7,222.006 km
Eccentricity
0.01592
Inclination
74.0164°
RAAN
31.2905°
Arg. of periapsis
118.7113°
True anomaly
254.35971°
Mean anomaly
256.1223°
Eccentric anomaly
255.24013°
Mean motion
3.53636 °/min
Orbital period
101.8 mins
BSTAR
0.0010775
Loading maneuver chart data...
Computing Atmospheric mass density...

Documentation

Showing up to 5 results
|